Simultaneous Nadir Overpasses (SNOs) Predictions

Prediction of SNOs between NOAA-20 and AQUA Satellite Orbit:

Table of predicted SNOs for the next 14.0 days since TLE Epoch: 8/4/2018
Index Date (NOAA-20) Time (NOAA-20) Lat,Lon (NOAA-20) SZA (NOAA-20 ) Date (AQUA) Time (AQUA) Lat,Lon (AQUA) SZA (AQUA ) Distance(km) Time Diff (sec)
1 08/06/2018 06:46:31 75.68, -43.82 81.61 08/06/2018 06:47:26 75.69, -43.74 81.54 2.39 55
2 08/06/2018 07:36:56 -76.63, 126.82 99.57 08/06/2018 07:36:34 -76.64, 126.92 99.58 2.88 22
3 08/08/2018 23:03:16 76.18, 73.65 81.70 08/08/2018 23:03:43 76.18, 73.66 81.68 0.14 27
4 08/08/2018 23:53:42 -77.07,-115.65 99.42 08/08/2018 23:52:52 -77.07,-115.66 99.38 0.41 50
5 08/11/2018 14:30:53 -72.05, 11.49 92.77 08/11/2018 14:32:07 -71.95, 12.01 92.88 20.87 74
6 08/11/2018 15:20:00 76.72,-168.59 81.77 08/11/2018 15:19:59 76.72,-168.68 81.79 2.65 1
7 08/11/2018 16:07:09 -80.93, 66.28 110.46 08/11/2018 16:05:56 -81.57, 67.29 110.18 73.21 73
8 08/14/2018 06:46:30 -75.87, 136.80 96.41 08/14/2018 06:47:17 -75.87, 136.81 96.45 0.51 47
9 08/14/2018 07:36:53 76.81, -52.48 82.43 08/14/2018 07:36:23 76.81, -52.46 82.45 0.46 30
10 08/16/2018 23:03:21 -76.10,-106.66 95.89 08/16/2018 23:03:39 -76.11,-106.57 95.93 2.93 18




NCC Satellite Simultaneous Nadir Overpasses (SNOs) Prediction Service
